Weather History for El Dorado, AR

Change the Weather History Date:

Tuesday, September 3, 2013

  Actual Average Record
Temperature  
Mean Temperature 86 °F 79 °F  
Max Temperature 99 °F 90 °F 110 °F (2000)
Min Temperature 72 °F 67 °F 48 °F (1952)
Degree Days  
Heating Degree Days 0 0  
Month to date heating degree days 0 0  
Since 1 July heating degree days 0 0  
Cooling Degree Days 21 14  
Month to date cooling degree days 59 42  
Year to date cooling degree days 1727 1769  
Growing Degree Days 36 (Base 50)    
Moisture  
Dew Point 70 °F    
Average Humidity 68    
Maximum Humidity 100    
Minimum Humidity 35    
Precipitation  
Precipitation 0.00 in 0.10 in 3.64 in (1940)
Month to date precipitation 0.00 0.30  
Year to date precipitation 26.84 34.85  
Snow  
Snow 0.00 in - - ()
Month to date snowfall 0.0  
Since 1 July snowfall 0.0  
Since 1 September snowfall 0.0  
Snow Depth 0.00 in    
Sea Level Pressure  
Sea Level Pressure 29.93 in    
Wind  
Wind Speed 4 mph (NE)    
Max Wind Speed 16 mph    
Max Gust Speed 20 mph    
Visibility 9 miles    
Events      
T = Trace of Precipitation, MM = Missing Value Source: NWS Daily Summary

Daily Weather History Graph

Daily Weather History Graph

Search for Another Location

Airport:

Trip Planner

Search our weather history database for the weather conditions in past years. The results will help you decide how hot, cold, wet, or windy it might be!

Date:

Astronomy

Sep. 03, 2013 Rise Set
Actual Time 6:47 AM CDT 7:33 PM CDT
Civil Twilight 6:21 AM CDT 7:58 PM CDT
Nautical Twilight 5:52 AM CDT 8:28 PM CDT
Astronomical Twilight 5:21 AM CDT 8:58 PM CDT
Moon 5:04 AM CDT (9/3) 6:19 PM CDT (9/3)
Length of Visible Light 13h 36m
Length of Day
12h 46m
Waning Crescent, 3% of the Moon is Illuminated
Sep 3
Waning Crescent
Sep 5
New
Sep 12
First Quarter
Sep 19
Full
Sep 26
Last Quarter

Hourly Weather History & Observations

Time (CDT) Temp. Heat Index Dew Point Humidity Pressure Visibility Wind Dir Wind Speed Gust Speed Precip Events Conditions
12:53 AM 75.9 °F - 72.0 °F 87% 29.91 in 9.0 mi Calm Calm - N/A   Clear
1:53 AM 73.9 °F - 72.0 °F 93% 29.92 in 8.0 mi Calm Calm - N/A   Clear
2:53 AM 73.0 °F - 72.0 °F 96% 29.92 in 7.0 mi Calm Calm - N/A   Partly Cloudy
3:53 AM 73.0 °F - 71.1 °F 93% 29.92 in 7.0 mi Calm Calm - N/A   Clear
4:53 AM 72.0 °F - 71.1 °F 97% 29.92 in 6.0 mi Calm Calm - N/A   Mostly Cloudy
5:53 AM 73.9 °F - 72.0 °F 93% 29.94 in 7.0 mi Calm Calm - N/A   Overcast
6:53 AM 73.0 °F - 71.1 °F 93% 29.95 in 7.0 mi Calm Calm - N/A   Partly Cloudy
7:53 AM 75.0 °F - 72.0 °F 90% 29.96 in 6.0 mi Calm Calm - N/A   Scattered Clouds
8:53 AM 82.0 °F 87.4 °F 73.0 °F 74% 29.97 in 8.0 mi North 3.5 mph - N/A   Clear
9:53 AM 87.1 °F 94.5 °F 73.0 °F 63% 29.98 in 9.0 mi NNE 4.6 mph - N/A   Clear
10:53 AM 90.0 °F 96.4 °F 71.1 °F 54% 29.98 in 10.0 mi Calm Calm - N/A   Clear
11:53 AM 91.9 °F 99.5 °F 72.0 °F 52% 29.97 in 10.0 mi Calm Calm - N/A   Clear
12:53 PM 93.9 °F 100.8 °F 71.1 °F 47% 29.96 in 10.0 mi Calm Calm - N/A   Scattered Clouds
1:53 PM 93.0 °F 97.9 °F 69.1 °F 45% 29.94 in 10.0 mi Variable 5.8 mph - N/A   Scattered Clouds
2:53 PM 96.1 °F 99.3 °F 66.0 °F 37% 29.91 in 10.0 mi NE 5.8 mph - N/A   Clear
3:53 PM 99.0 °F 102.9 °F 66.0 °F 34% 29.88 in 10.0 mi NNE 8.1 mph - N/A   Mostly Cloudy
4:53 PM 93.9 °F 99.1 °F 69.1 °F 44% 29.88 in 10.0 mi ENE 11.5 mph - N/A   Scattered Clouds
5:53 PM 93.9 °F 98.6 °F 68.0 °F 43% 29.88 in 10.0 mi NE 10.4 mph - N/A   Clear
6:53 PM 91.0 °F 94.3 °F 66.9 °F 45% 29.89 in 10.0 mi NE 6.9 mph - N/A   Clear
7:02 PM 89.6 °F 92.2 °F 66.2 °F 46% 29.90 in 1.2 mi NE 5.8 mph - N/A   Haze
7:18 PM 89.6 °F 93.4 °F 68.0 °F 49% 29.91 in 10.0 mi NE 3.5 mph - N/A   Clear
7:53 PM 86.0 °F 89.4 °F 68.0 °F 55% 29.91 in 10.0 mi NE 6.9 mph - N/A   Scattered Clouds
8:53 PM 84.0 °F 87.0 °F 68.0 °F 58% 29.95 in 10.0 mi NE 5.8 mph - N/A   Partly Cloudy
9:53 PM 82.0 °F 84.5 °F 66.9 °F 60% 29.97 in 10.0 mi NE 8.1 mph - N/A   Clear
10:53 PM 81.0 °F 83.0 °F 66.0 °F 60% 29.99 in 10.0 mi ENE 10.4 mph - N/A   Clear
11:53 PM 80.1 °F 82.1 °F 66.0 °F 62% 29.99 in 10.0 mi ENE 9.2 mph - N/A   Clear